This is the latest recevied weather packets stored in our database for station/object EA1IRT-1. If no packets are shown the sender has not sent any weather packets the latest 10 day(s).
| Time | Temp. | Humidity | Pressure | Rain* | Wind** | Luminosity | Snow |
|---|---|---|---|---|---|---|---|
| 1777835600 | 13.89° C | 100% | 1013.9 hPa | - | - | - | - |
| 1777834700 | 13.89° C | 95% | 1013.8 hPa | - | - | - | - |
| 1777833775 | 14.44° C | 93% | 1013.7 hPa | - | - | - | - |
| 1777832851 | 14.44° C | 87% | 1013.7 hPa | - | - | - | - |
| 1777831951 | 15° C | 89% | 1013.7 hPa | - | - | - | - |
| 1777831051 | 15° C | 87% | 1013.6 hPa | - | - | - | - |
| 1777830151 | 15.56° C | 88% | 1013.5 hPa | - | - | - | - |
| 1777829251 | 15.56° C | 86% | 1013.5 hPa | - | - | - | - |
| 1777828351 | 15.56° C | 82% | 1013.4 hPa | - | - | - | - |
| 1777827451 | 15.56° C | 80% | 1013.4 hPa | - | - | - | - |
| 1777826551 | 16.67° C | 85% | 1013.4 hPa | - | - | - | - |
| 1777825650 | 16.11° C | 81% | 1013.3 hPa | - | - | - | - |
| 1777824750 | 16.67° C | 80% | 1013.4 hPa | - | - | - | - |
| 1777823850 | 16.67° C | 80% | 1013.4 hPa | - | - | - | - |
| 1777822925 | 16.67° C | 87% | 1013.4 hPa | - | - | - | - |
| 1777822001 | 16.67° C | 93% | 1013.4 hPa | - | - | - | - |
| 1777821101 | 16.11° C | 100% | 1013.5 hPa | - | - | - | - |
| 1777820201 | 15.56° C | 100% | 1013.7 hPa | - | - | - | - |
| 1777819301 | 15.56° C | 100% | 1013.9 hPa | - | - | - | - |
| 1777818407 | 15° C | 100% | 1013.9 hPa | - | - | - | - |
| 1777817501 | 15° C | 100% | 1014 hPa | - | - | - | - |
| 1777816601 | 15° C | 99% | 1014 hPa | - | - | - | - |
| 1777815700 | 15.56° C | 100% | 1013.7 hPa | - | - | - | - |
| 1777814800 | 15.56° C | 99% | 1013.5 hPa | - | - | - | - |
| 1777813900 | 16.11° C | 97% | 1013.4 hPa | - | - | - | - |
* Rain since midnight (hover to see other rain measurements)
** Current wind speed in m/s (hover to see current wind gust speed)